SCP
1 1 1 1 0 0 0 0 0 0 0 0 0 0 0 0 0 0 0 0 0 0 0 0 0 0 0 0 0 0 0 0 0 0 -0 0 0 0 0 0 0 0 0
1 1 1 0 0 0 0 0 0 0 0 0 0 0 0 0 0 0 0 0 0 0 0 0 0 0 0 0 0 0 0 0 0 -0 -0 -0 0 0 0 0 0 0 0
1 1 1 0 0 0 0 0 0 0 1 1 1 0 0 0 0 0 0 0 0 0 0 0 0 0 0 0 0 0 0 0 -0 -0 -0 0 0 0 0 0 0 0 0
1 1 0 0 0 0 0 0 0 0 1 1 1 1 0 0 0 0 0 0 0 0 1 1 1 0 0 0 0 0 0 -0 -0 -0 0 0 0 0 0 0 0 0 0
1 1 0 0 0 0 0 0 0 0 1 1 1 1 1 0 0 0 0 0 1 1 1 1 1 1 0 0 0 0 -0 -0 -0 -0 0 0 0 0 0 0 0 0 0
0 0 0 0 0 0 0 0 0 0 0 1 1 1 1 1 0 0 0 1 1 1 1 1 1 0 0 0 0 0 -0 -0 -0 0 0 0 0 0 0 0 0 0 0
0 0 0 0 0 0 0 0 0 0 1 1 1 1 1 1 1 1 1 1 1 1 1 1 0 0 0 0 0 0 -0 -0 0 0 0 0 0 0 0 0 0 0 0
1 0 0 0 0 0 0 0 1 1 1 1 1 1 1 1 1 1 1 1 1 1 1 0 0 0 0 0 0 0 0 0 0 0 0 0 0 0 0 0 0 0 0
1 1 0 0 0 0 1 1 1 1 1 1 1 1 1 1 1 1 1 1 1 1 0 0 0 0 0 0 0 0 0 0 0 0 0 0 0 0 0 0 0 0 0
1 1 0 0 0 1 1 1 1 1 1 1 1 1 1 1 1 1 1 1 1 0 0 0 0 0 0 0 -0 -0 -0 0 0 0 0 0 0 0 0 0 0 0 0
1 1 0 0 1 1 1 0 0 0 1 1 1 1 1 1 1 1 1 1 0 0 0 0 0 0 0 0 0 -0 0 0 0 0 0 0 0 0 0 0 0 0 0
1 1 1 1 1 1 0 0 0 0 0 0 1 1 1 1 1 1 0 0 0 0 0 0 0 0 0 0 0 0 0 0 0 0 0 0 0 0 0 0 0 0 0
1 1 1 1 1 1 0 0 0 0 0 1 1 1 0 0 0 0 0 0 0 0 0 0 0 0 0 0 0 0 0 0 0 0 0 0 0 0 0 0 0 0 0
1 1 1 1 1 1 1 0 0 1 1 1 1 0 0 0 0 0 0 0 0 0 0 0 0 0 0 0 0 0 0 0 0 0 0 0 0 0 0 0 0 0 0
1 1 1 2 2 1 1 1 1 1 1 1 0 0 -0 -0 0 0 0 0 0 0 0 0 0 0 0 0 0 0 0 0 0 0 0 0 0 0 0 0 0 0 0
2 2 2 2 2 2 1 1 1 0 0 0 0 0 0 0 0 0 0 0 0 0 1 1 0 0 0 0 0 0 1 1 1 1 1 1 1 1 1 1 1 0 0
3 3 3 2 2 2 1 1 1 0 0 0 0 0 0 0 0 0 0 0 0 1 1 1 1 1 1 1 1 1 1 1 1 1 1 1 1 1 1 1 1 1 1
4 4 3 2 1 2 2 2 1 1 1 0 0 0 0 0 0 0 1 1 1 1 1 1 1 1 1 2 2 1 1 1 1 1 1 1 1 1 1 2 2 1 1
4 3 2 1 2 2 2 2 2 1 1 1 1 1 0 0 0 1 1 1 1 2 2 2 2 2 2 2 2 1 1 1 1 1 1 1 1 1 1 1 2 2 2
4 3 2 2 2 3 3 3 3 2 2 2 1 1 1 1 1 1 1 2 2 2 2 2 2 2 2 2 1 1 1 1 1 1 1 1 0 1 1 1 1 2 2
4 3 2 3 4 4 4 4 4 3 2 2 2 2 2 2 2 2 2 2 2 3 3 3 2 2 2 2 1 1 1 0 0 0 0 0 0 0 0 1 1 1 1
4 3 3 3 4 5 5 5 4 3 3 2 2 2 2 1 1 2 2 2 2 2 2 2 2 2 1 1 1 1 0 0 0 0 0 0 0 0 0 0 1 1 1
3 3 3 3 3 4 4 4 3 3 2 2 2 1 1 1 1 1 1 1 1 1 2 2 1 1 1 1 1 1 0 0 0 0 0 0 0 0 0 0 0 1 1
2 2 2 2 2 2 2 2 2 2 1 1 1 1 0 0 1 1 1 1 1 1 1 1 1 1 0 0 0 0 0 0 0 0 0 0 0 0 0 0 0 1 1
1 1 1 1 1 1 1 1 1 1 1 0 0 0 0 0 0 0 1 1 1 1 1 1 0 0 0 0 0 0 0 0 0 0 0 0 0 0 0 0 0 1 1
1 1 1 1 1 0 0 0 0 0 0 0 0 0 0 0 0 0 1 1 1 1 1 1 0 0 0 0 0 0 0 0 0 0 0 0 0 0 0 0 0 0 1
Wind_Speed
14 14 14 14 14 13 12 11 11 10 9 9 9 10 10 10 9 9 8 8 8 8 8 8 9 9 10 10 10 9 9 7 6 4 1 2 4 4 3 2 4 1 7
17 15 14 13 13 13 12 12 12 12 10 9 9 9 9 9 9 9 9 9 8 8 9 9 10 11 10 10 9 8 7 6 5 6 6 4 6 6 3 1 4 4 4
16 14 13 12 13 13 12 12 12 12 12 11 10 9 9 8 7 7 7 8 8 9 9 10 10 10 9 8 7 6 5 4 6 8 10 8 6 7 4 3 5 1 4
15 13 13 13 12 12 11 11 11 12 13 13 12 11 9 8 7 6 6 6 7 8 8 8 9 9 7 6 5 3 3 5 8 9 6 5 7 8 7 6 7 1 5
14 13 13 14 13 12 10 10 11 11 12 13 13 12 11 9 7 6 6 6 7 9 10 10 10 9 8 7 6 4 4 7 10 10 3 8 7 9 9 7 6 3 3
15 13 13 13 13 12 11 10 10 10 10 11 12 11 10 8 7 6 6 7 10 13 14 13 12 11 10 9 8 7 5 6 8 6 4 9 8 10 11 9 7 5 2
14 13 12 11 12 12 11 10 9 9 9 10 11 11 8 6 6 6 7 9 11 14 15 13 11 10 9 7 6 4 4 6 3 2 7 8 7 10 10 9 9 8 6
15 14 13 12 13 12 11 9 8 7 8 9 9 9 8 7 7 7 9 11 13 14 13 12 10 10 9 7 5 2 3 6 4 4 5 9 8 8 8 7 7 7 7
17 17 15 14 13 12 11 10 9 8 8 8 9 9 9 8 9 9 11 12 13 13 12 10 10 9 8 6 4 1 2 5 4 2 6 7 8 7 6 6 6 6 5
15 14 14 15 14 12 11 11 10 9 9 9 9 10 10 10 9 10 10 11 12 12 11 11 10 9 7 7 6 4 3 3 2 3 4 6 7 4 3 4 5 6 6
14 13 13 15 13 12 11 11 10 10 9 9 8 8 7 6 7 7 10 10 10 11 11 11 10 10 9 9 8 8 6 3 3 1 3 6 5 1 3 4 5 6 5
11 11 10 12 14 13 10 9 8 8 8 6 6 6 4 2 3 7 9 9 9 10 10 11 11 10 9 6 9 9 4 5 5 4 5 10 7 4 4 5 7 7 7
12 13 13 10 8 11 8 7 5 5 5 4 5 5 4 4 5 7 6 6 6 8 7 8 8 6 4 1 2 4 3 3 2 3 7 13 10 7 6 6 8 9 9
13 13 12 10 7 5 4 4 3 4 4 4 3 3 4 2 3 4 4 6 6 5 4 3 4 4 2 4 5 5 4 4 2 1 6 13 12 11 10 10 10 10 11
13 12 12 12 8 5 4 2 3 3 4 5 3 1 0 2 0 2 2 2 2 2 4 2 3 0 2 5 5 5 4 4 4 4 2 12 13 13 14 14 14 13 13
14 14 13 12 8 6 4 3 3 3 1 3 3 3 3 2 3 2 1 1 3 2 4 3 5 3 3 4 5 6 5 5 5 4 4 4 10 14 17 17 17 16 15
14 14 13 11 8 6 6 5 4 3 2 4 4 2 2 2 3 2 2 1 2 2 1 2 6 4 5 6 5 6 5 5 5 5 4 4 6 12 18 19 17 17 16
14 13 10 9 7 5 4 3 3 3 4 3 3 3 0 3 1 3 4 2 2 1 2 4 4 4 5 4 4 4 5 5 7 7 6 6 6 8 8 14 18 18 18
15 16 11 5 3 4 4 3 4 3 3 2 2 2 2 2 3 2 4 4 3 2 3 5 3 3 4 5 6 6 5 5 5 8 7 9 9 7 6 9 18 22 21
18 16 8 5 3 4 3 2 2 2 2 1 2 3 4 2 3 3 4 5 5 4 3 4 5 4 4 5 9 9 6 6 7 8 9 8 7 10 11 10 6 11 20
16 14 9 4 3 2 2 1 1 0 1 2 2 5 5 5 6 5 5 6 5 4 5 6 5 6 5 5 7 7 7 7 7 6 7 8 9 9 6 5 3 4 6
14 10 8 7 6 6 5 3 3 3 4 5 6 8 8 7 6 5 5 5 5 5 6 5 6 5 7 7 7 8 10 8 7 9 6 6 7 6 7 9 7 6 4
14 12 10 9 8 8 7 5 4 4 4 5 6 5 6 6 4 4 4 4 4 5 5 7 7 7 7 7 6 8 11 13 8 6 8 8 7 7 7 8 9 8 6
15 14 14 12 11 10 10 9 9 7 5 4 3 1 4 5 6 6 6 5 4 4 6 8 8 8 9 10 8 7 8 10 12 12 7 6 8 9 8 7 7 8 7
14 14 13 13 12 11 11 11 10 8 6 5 5 6 6 7 8 8 7 5 5 5 7 8 8 8 8 10 11 9 10 10 11 12 14 8 7 6 6 6 5 5 5
13 13 12 12 11 10 11 10 10 9 8 8 7 7 7 6 7 9 8 7 7 6 7 8 8 10 9 10 9 8 9 10 10 10 13 12 10 9 9 7 6 6 7
Wind_Direction
107 109 109 109 108 107 106 104 108 120 122 126 124 120 119 117 114 111 102 87 79 77 79 83 81 79 73 68 66 63 56 46 32 16 4 130 125 126 114 54 348 310 120
112 112 114 114 111 108 109 109 110 116 120 119 117 116 116 119 121 120 115 107 97 81 75 78 75 71 69 67 64 59 49 30 355 317 303 259 181 169 161 36 22 76 128
110 117 120 118 114 112 113 114 114 118 121 118 114 109 104 103 108 113 116 114 107 96 90 88 83 77 68 61 56 49 32 352 320 315 312 283 184 159 132 50 15 102 156
122 121 115 122 118 118 119 119 120 123 126 122 118 112 104 97 97 101 103 103 99 94 92 90 85 81 73 62 51 32 342 310 303 306 302 17 114 109 87 50 14 7 179
109 109 120 126 125 128 128 126 127 130 132 129 124 118 110 103 99 100 98 99 91 79 74 80 80 77 71 60 47 23 343 318 308 296 282 85 86 71 64 47 30 29 199
116 120 121 128 132 137 138 134 134 135 133 129 124 120 120 120 113 97 91 95 95 92 90 88 87 86 82 74 62 46 11 332 311 298 53 73 63 42 43 34 22 8 324
118 117 124 138 143 143 144 143 140 137 135 134 132 132 133 121 111 105 102 106 108 105 101 100 101 99 93 85 76 53 347 315 309 30 83 76 59 42 34 25 17 7 350
129 125 131 144 148 145 143 138 131 130 134 139 140 140 139 130 119 117 119 121 120 115 111 110 108 106 104 98 89 63 344 335 7 28 91 92 63 43 29 17 6 354 354
141 139 141 142 141 136 136 137 135 136 134 137 147 151 152 145 136 130 126 128 131 128 124 120 123 125 125 124 132 152 335 341 329 311 79 86 66 38 9 355 346 337 334
143 141 146 141 140 140 135 135 135 135 135 136 142 152 156 153 146 136 130 134 140 142 141 143 150 151 157 170 185 203 242 292 332 21 74 85 72 36 343 328 322 319 320
135 153 146 136 139 135 134 139 142 141 143 145 152 163 168 173 152 143 126 134 142 148 153 163 177 181 188 201 209 207 217 218 156 128 121 116 114 195 291 296 291 289 295
142 128 126 136 145 138 139 153 159 158 160 183 157 167 179 153 131 130 138 153 159 163 171 188 198 204 208 213 214 212 229 227 179 187 175 158 167 203 264 279 278 275 273
151 148 146 138 130 134 148 165 158 142 156 155 130 138 157 158 158 151 163 170 180 182 197 195 205 220 216 184 251 225 225 270 241 205 161 174 181 195 230 253 264 270 272
152 134 123 118 92 80 108 124 162 142 150 125 132 197 163 185 215 168 178 178 180 190 201 202 214 182 246 254 243 254 254 244 264 283 164 186 191 198 213 226 238 249 256
133 126 116 101 93 76 50 49 70 76 102 122 141 94 225 175 177 66 27 7 305 138 168 235 287 337 290 283 268 275 287 304 292 271 167 199 209 209 216 222 228 234 240
137 129 120 118 120 115 104 75 62 80 39 105 88 76 348 42 59 54 332 315 321 3 37 359 317 302 269 268 289 289 288 281 274 272 265 240 220 224 226 226 227 228 231
137 126 125 126 130 136 137 141 129 137 133 84 83 72 345 11 55 347 279 212 274 345 23 273 275 279 270 265 261 268 273 271 287 290 290 279 262 247 235 228 226 227 228
129 112 110 119 121 119 104 100 90 72 82 89 123 129 66 5 7 324 307 281 270 312 298 269 255 263 271 290 299 303 308 303 291 280 274 273 275 278 259 229 226 229 228
88 80 59 57 138 136 120 106 99 92 76 74 84 105 103 341 305 299 303 309 313 281 272 286 324 339 325 325 313 297 283 281 293 298 293 284 275 267 269 249 228 226 225
97 103 125 195 168 132 117 94 103 107 122 116 87 75 67 345 325 335 313 338 332 320 328 343 334 320 304 292 288 285 285 279 269 262 265 271 275 272 264 254 243 224 223
111 131 156 141 84 72 62 52 95 64 36 39 49 58 44 26 19 6 344 342 339 344 343 326 322 315 302 289 288 284 271 268 277 275 268 265 264 266 277 277 267 258 224
92 107 107 86 46 32 33 27 20 18 14 27 33 31 17 7 355 349 5 331 346 338 318 327 336 315 304 304 300 298 297 290 279 284 287 290 300 315 308 297 284 258 255
78 82 87 83 59 38 26 27 29 25 20 23 22 24 350 313 321 339 322 324 339 327 324 339 313 313 315 308 295 294 294 291 291 288 289 288 288 285 279 272 265 260 242
75 77 77 73 61 48 44 40 40 34 25 24 6 11 319 328 349 338 326 328 337 333 323 318 337 333 315 306 301 294 292 305 308 302 282 278 283 281 275 276 277 267 249
81 77 71 66 58 50 47 44 40 34 20 10 356 353 350 346 339 326 322 345 0 337 327 332 326 324 315 305 304 306 308 306 299 291 293 295 289 286 291 296 312 308 301
83 79 72 64 57 50 43 38 32 21 2 348 343 341 345 334 319 319 338 360 345 334 333 330 325 316 313 313 314 311 308 307 307 306 304 308 306 310 317 330 331 332 339